[[{"header":{"parameterUnit":"m.s-1","parameterCategory":2,"la1":30.2991,"la2":30.254,"lo1":-89.0895,"lo2":-89.0444,"dy":0.0017,"dx":0.0017,"nx":28,"ny":28,"refTime":"2024-10-20T21:00:00:Z","depth":"0","parameterNumber":2,"parameterNumberName":"U-component_of_CURRENTS"},"data":[0,0,0,0,0,0,0,0,0,0,0,0,0,0,0,0,0,0,0,0,0,0,0,0,0,0,0,0,0,0,0,0,0,0,0,0,0,0,0,0,0,0,0,0,0,0,0,0,0,0,0,0,0,0,0,0,0,0,-0.2516,-0.2516,0,-0.2499,-0.2499,-0.2498,-0.2449,-0.2448,-0.2447,-0.2446,-0.2392,-0.2392,-0.2391,0,0,0,0,0,0,0,0,0,0,0,0,0,-0.251,-0.251,-0.2516,-0.2516,-0.2516,-0.2499,-0.2499,-0.2498,-0.2449,-0.2448,-0.2447,-0.2446,-0.2393,-0.2392,-0.2391,0,0,0,0,0,0,0,0,0,0,0,0,0,-0.2503,-0.251,-0.2516,-0.2491,-0.2489,-0.2499,-0.2499,-0.2498,-0.2449,-0.2448,-0.2446,-0.2445,-0.2393,-0.2392,-0.2391,-0.2412,0,0,-0.2388,-0.2388,0,0,0,0,0,0,0,0,-0.2503,-0.2502,-0.2495,-0.2493,-0.2491,-0.2477,-0.2477,-0.2468,-0.2449,-0.2462,-0.2446,-0.2444,-0.242,-0.2417,-0.2413,-0.2409,-0.2407,-0.2388,-0.2388,-0.2387,-0.2387,0,0,0,0,0,0,0,-0.2504,-0.2503,-0.2507,-0.2495,-0.2492,-0.2482,-0.248,-0.2475,-0.2446,-0.246,-0.2457,-0.246,-0.2418,-0.2414,-0.2412,-0.2406,-0.2388,-0.2387,-0.2387,-0.2386,-0.2396,-0.2397,0,0,0,0,0,0,-0.2512,-0.2504,-0.2508,-0.2507,-0.2496,-0.2484,-0.248,-0.2481,-0.2447,-0.2441,-0.2461,-0.2457,-0.2417,-0.2413,-0.241,-0.2419,-0.2387,-0.2386,-0.2386,-0.2395,-0.2396,-0.2397,0,0,0,0,0,0,-0.2512,-0.2512,-0.2509,-0.2507,-0.2506,-0.2485,-0.2486,-0.2481,-0.2473,-0.2448,-0.2441,-0.2458,-0.2415,-0.2411,-0.2406,-0.2417,-0.2386,-0.2385,-0.2394,-0.2395,-0.2397,-0.2446,0,0,0,0,0,0,-0.2512,-0.2512,-0.2511,-0.2507,-0.2506,-0.2517,-0.2487,-0.2482,-0.2478,-0.2473,-0.2443,-0.2437,-0.2414,-0.2408,-0.2405,-0.2415,-0.2384,-0.2393,-0.2395,-0.2396,-0.2444,-0.2449,-0.2454,0,0,0,0,0,-0.2511,-0.2517,-0.2512,-0.2512,-0.2507,-0.2518,-0.2516,-0.2496,-0.2479,-0.2482,-0.2461,-0.2437,-0.2415,-0.2408,-0.2405,-0.2415,-0.2392,-0.2394,-0.2396,-0.2442,-0.2448,-0.2454,0,0,0,0,0,0,-0.2511,-0.2513,-0.2506,-0.2511,-0.2516,-0.251,-0.2509,-0.2501,-0.2488,-0.2479,-0.245,-0.2444,-0.2443,-0.2426,-0.2419,-0.2422,-0.2399,-0.2401,-0.2435,-0.2441,-0.2446,-0.2447,-0.2384,0,0,0,0,0,-0.2514,-0.2515,-0.2522,-0.2523,-0.2529,-0.2521,-0.2521,-0.2512,-0.2504,-0.2496,-0.2477,-0.2459,-0.2451,-0.2443,-0.2432,-0.2438,-0.2414,-0.2442,-0.2447,-0.2451,-0.2451,-0.2432,-0.2435,-0.2403,-0.2403,-0.2403,0,0,-0.2512,-0.2515,-0.2513,-0.2524,-0.2522,-0.2535,-0.2517,-0.2522,-0.2528,-0.2494,-0.2491,-0.2477,-0.2457,-0.2459,-0.2457,-0.2445,-0.2448,-0.2454,-0.2458,-0.2455,-0.2434,-0.2437,-0.2439,-0.2404,-0.2404,-0.2404,0,0,-0.2515,-0.2516,-0.2519,-0.2531,-0.254,-0.2543,-0.2548,-0.2549,-0.2543,-0.2548,-0.2524,-0.2518,-0.2505,-0.2493,-0.2486,-0.2515,-0.2476,-0.2511,-0.2536,-0.2518,-0.252,-0.2522,-0.2493,-0.2491,-0.2513,-0.2513,-0.2513,0,-0.2512,-0.2517,-0.2523,-0.2538,-0.2546,-0.255,-0.2562,-0.2568,-0.2565,-0.2564,-0.2551,-0.2534,-0.252,-0.2522,-0.2532,-0.2526,-0.2504,-0.2515,-0.2524,-0.2525,-0.2526,-0.2495,-0.2493,-0.2515,-0.2515,-0.2515,-0.2515,0,-0.2517,-0.2527,-0.2535,-0.2551,-0.2566,-0.2578,-0.2596,-0.2605,-0.26,-0.2599,-0.2599,-0.2583,-0.2569,-0.2571,-0.2561,-0.2565,-0.2543,-0.2533,-0.2508,-0.2532,-0.2498,-0.2495,-0.2519,-0.2518,-0.2517,-0.2517,0,0,-0.2485,-0.2529,-0.2528,-0.2541,-0.2574,-0.2584,-0.2611,-0.2628,-0.2634,-0.2636,-0.2636,-0.2635,-0.2621,-0.2613,-0.26,-0.2591,-0.2583,-0.2569,-0.2567,-0.2538,-0.2532,-0.2445,-0.2433,-0.2573,-0.2573,-0.2573,-0.2506,0,-0.2481,-0.2509,-0.2534,-0.2559,-0.2574,-0.2602,-0.2626,-0.2645,-0.2652,-0.2657,-0.2651,-0.2644,-0.264,-0.2629,-0.2625,-0.2595,-0.2577,-0.2602,-0.2514,-0.2512,-0.243,-0.2427,-0.232,-0.2245,-0.2502,-0.2502,-0.2501,0,-0.2464,-0.2488,-0.2513,-0.256,-0.2569,-0.2588,-0.2617,-0.264,-0.2663,-0.2668,-0.267,-0.2661,-0.2659,-0.2644,-0.2606,-0.2621,-0.2581,-0.2555,-0.2551,-0.2449,-0.2418,-0.2262,-0.2229,-0.2204,-0.2496,-0.2496,-0.2497,0,-0.2416,-0.2467,-0.2484,-0.25,-0.2558,-0.2571,-0.2598,-0.2632,-0.2644,-0.2667,-0.2665,-0.2668,-0.2649,-0.2624,-0.2576,-0.259,-0.2517,-0.2525,-0.2406,-0.2399,-0.2278,-0.2261,-0.2206,-0.2484,-0.2484,-0.2484,-0.2485,0,-0.2389,-0.2398,-0.2462,-0.2469,-0.2485,-0.2541,-0.2554,-0.2584,-0.2621,-0.2621,-0.2657,-0.2642,-0.2642,-0.2603,-0.2572,-0.2469,-0.2508,-0.2401,-0.2373,-0.2292,-0.2277,-0.2226,-0.2244,-0.2482,-0.2482,-0.2483,-0.2483,0,-0.2315,-0.2364,-0.2381,-0.2443,-0.2458,-0.2463,-0.2517,-0.2525,-0.2577,-0.2576,-0.2581,-0.261,-0.2559,-0.2537,-0.248,-0.2434,-0.2307,-0.2314,-0.2213,-0.2174,-0.2041,-0.2065,-0.196,-0.191,-0.2176,-0.2174,-0.2172,0,-0.2274,-0.2277,-0.2335,-0.2337,-0.2358,-0.2385,-0.2397,-0.2476,-0.2489,-0.2539,-0.2525,-0.2504,-0.2444,-0.234,-0.2273,-0.218,-0.2183,-0.2028,-0.2034,-0.2006,-0.2014,-0.2032,-0.2001,-0.1897,-0.1893,-0.1889,-0.1886,0,-0.218,-0.2202,-0.2214,-0.223,-0.2243,-0.2261,-0.2292,-0.2301,-0.2382,-0.2382,-0.2362,-0.2322,-0.2249,-0.2105,-0.2007,-0.1951,-0.1965,-0.1951,-0.1948,-0.1806,-0.1795,-0.1741,-0.1976,-0.1855,-0.1858,-0.1861,-0.1862,-0.1864,-0.2084,-0.2073,-0.2092,-0.2091,-0.2112,-0.2106,-0.2072,-0.212,-0.211,-0.2082,-0.2146,-0.2046,-0.1973,-0.1817,-0.1764,-0.1645,-0.1724,-0.1593,-0.1629,-0.1654,-0.1589,-0.1747,-0.1582,-0.1583,-0.1585,-0.1586,-0.1587,0,-0.1947,-0.195,-0.195,-0.1943,-0.1908,-0.1968,-0.197,-0.1911,-0.1847,-0.1861,-0.1809,-0.1708,-0.1564,-0.1531,-0.1423,-0.1347,-0.1341,-0.1325,-0.1343,-0.133,-0.1475,-0.1446,-0.1211,-0.1211,-0.1211,-0.1211,-0.1211,-0.1212,-0.1873,-0.1823,-0.183,-0.173,-0.1724,-0.1626,-0.1593,-0.1535,-0.1516,-0.1404,-0.1364,-0.1375,-0.1351,-0.1365,-0.1255,-0.1198,-0.1189,-0.1132,-0.1187,-0.1315,-0.1344,-0.1372,-0.1349,-0.1098,-0.1098,-0.0984,-0.0983,-0.0982]},{"header":{"parameterUnit":"m.s-1","parameterCategory":2,"la1":30.2991,"la2":30.254,"lo1":-89.0895,"lo2":-89.0444,"dy":0.0017,"dx":0.0017,"nx":28,"ny":28,"refTime":"2024-10-20T21:00:00:Z","depth":"0","parameterNumber":3,"parameterNumberName":"V-component_of_CURRENTS"},"data":[0,0,0,0,0,0,0,0,0,0,0,0,0,0,0,0,0,0,0,0,0,0,0,0,0,0,0,0,0,0,0,0,0,0,0,0,0,0,0,0,0,0,0,0,0,0,0,0,0,0,0,0,0,0,0,0,0,0,-0.0517,-0.0516,0,-0.0432,-0.0431,-0.043,-0.0382,-0.0382,-0.0382,-0.0382,-0.0279,-0.0276,-0.0274,0,0,0,0,0,0,0,0,0,0,0,0,0,-0.0612,-0.0611,-0.0517,-0.0516,-0.0515,-0.0432,-0.0431,-0.043,-0.0382,-0.0382,-0.0382,-0.0382,-0.028,-0.0277,-0.0274,0,0,0,0,0,0,0,0,0,0,0,0,0,-0.0553,-0.061,-0.0517,-0.0481,-0.0477,-0.0433,-0.0431,-0.043,-0.0382,-0.0382,-0.0382,-0.0382,-0.0281,-0.0277,-0.0273,-0.0254,0,0,-0.0261,-0.026,0,0,0,0,0,0,0,0,-0.0557,-0.055,-0.0487,-0.0483,-0.0479,-0.0418,-0.0427,-0.037,-0.0382,-0.0418,-0.0382,-0.0382,-0.0324,-0.0316,-0.0301,-0.0249,-0.0245,-0.0261,-0.0259,-0.0257,-0.0256,0,0,0,0,0,0,0,-0.0561,-0.0553,-0.0483,-0.0486,-0.0481,-0.0461,-0.0452,-0.0416,-0.0373,-0.0415,-0.0411,-0.0402,-0.0321,-0.0305,-0.0298,-0.0243,-0.0261,-0.0258,-0.0255,-0.0254,-0.0163,-0.0163,0,0,0,0,0,0,-0.0573,-0.0557,-0.0486,-0.0481,-0.0518,-0.0459,-0.045,-0.0437,-0.0374,-0.0364,-0.0402,-0.04,-0.0312,-0.0303,-0.0295,-0.0271,-0.0257,-0.0253,-0.0251,-0.0163,-0.0163,-0.0163,0,0,0,0,0,0,-0.0575,-0.0567,-0.0489,-0.0517,-0.0506,-0.0458,-0.0444,-0.0436,-0.042,-0.0364,-0.0354,-0.0395,-0.0311,-0.03,-0.0263,-0.0266,-0.0252,-0.0248,-0.0163,-0.0163,-0.0163,-0.0221,0,0,0,0,0,0,-0.0578,-0.0568,-0.0566,-0.0518,-0.0505,-0.0468,-0.0444,-0.0434,-0.0414,-0.0411,-0.0355,-0.0345,-0.031,-0.0269,-0.026,-0.0261,-0.0245,-0.0163,-0.0163,-0.0163,-0.0219,-0.0223,-0.0226,0,0,0,0,0,-0.0582,-0.0579,-0.0566,-0.0558,-0.0502,-0.0468,-0.046,-0.0425,-0.0415,-0.041,-0.0371,-0.0347,-0.0261,-0.0266,-0.0255,-0.0255,-0.0163,-0.0163,-0.0163,-0.0218,-0.0222,-0.0226,0,0,0,0,0,0,-0.0615,-0.0572,-0.0558,-0.054,-0.051,-0.0461,-0.0452,-0.043,-0.0396,-0.0393,-0.0343,-0.033,-0.0301,-0.0268,-0.0275,-0.0227,-0.0209,-0.0206,-0.0255,-0.0258,-0.0262,-0.0276,-0.0242,0,0,0,0,0,-0.0623,-0.0612,-0.0567,-0.0555,-0.0542,-0.05,-0.0483,-0.046,-0.0423,-0.0407,-0.0368,-0.0326,-0.029,-0.0268,-0.0232,-0.0204,-0.0171,-0.0197,-0.02,-0.0203,-0.0207,-0.0163,-0.0163,-0.0162,-0.0162,-0.0162,0,0,-0.0633,-0.0608,-0.0602,-0.0563,-0.0537,-0.0526,-0.0489,-0.0468,-0.0458,-0.0401,-0.0378,-0.0338,-0.0286,-0.0257,-0.024,-0.023,-0.0185,-0.0203,-0.0206,-0.0208,-0.0162,-0.0163,-0.0163,-0.0162,-0.0162,-0.0162,0,0,-0.0655,-0.0626,-0.0629,-0.0608,-0.0574,-0.0546,-0.0544,-0.0498,-0.0477,-0.0448,-0.0407,-0.0369,-0.0314,-0.0276,-0.0251,-0.025,-0.0207,-0.0239,-0.0265,-0.0222,-0.0222,-0.0222,-0.0178,-0.0173,-0.0238,-0.0239,-0.0239,0,-0.0671,-0.0665,-0.0625,-0.0623,-0.0612,-0.0561,-0.0565,-0.0535,-0.0484,-0.0466,-0.045,-0.0365,-0.0323,-0.0282,-0.0282,-0.0259,-0.0227,-0.0256,-0.0228,-0.0227,-0.0225,-0.018,-0.0174,-0.0241,-0.0241,-0.0241,-0.0241,0,-0.0695,-0.0692,-0.0691,-0.0674,-0.0655,-0.0649,-0.0605,-0.0586,-0.0555,-0.0518,-0.0472,-0.0411,-0.0361,-0.0341,-0.0311,-0.0279,-0.0257,-0.0241,-0.0222,-0.0229,-0.018,-0.0173,-0.0245,-0.0244,-0.0244,-0.0243,0,0,-0.0726,-0.0714,-0.0714,-0.0721,-0.0684,-0.0672,-0.0656,-0.0622,-0.0608,-0.0554,-0.0528,-0.0463,-0.0424,-0.0393,-0.0345,-0.0305,-0.0266,-0.0274,-0.0271,-0.0238,-0.017,-0.0122,-0.0109,-0.0247,-0.0246,-0.0245,-0.014,0,-0.076,-0.0783,-0.0757,-0.0773,-0.0782,-0.0735,-0.0723,-0.0684,-0.0638,-0.0597,-0.0527,-0.0484,-0.0445,-0.0419,-0.0374,-0.0288,-0.025,-0.0296,-0.016,-0.0156,-0.012,-0.01,-0.0071,0.0028,-0.0132,-0.0131,-0.013,0,-0.0792,-0.0805,-0.0834,-0.0831,-0.0828,-0.0826,-0.0794,-0.0774,-0.0702,-0.0663,-0.0603,-0.0542,-0.0469,-0.0441,-0.0306,-0.0337,-0.0266,-0.0201,-0.0195,-0.0126,-0.0095,0.0011,0.0048,0.0145,-0.0118,-0.0119,-0.012,0,-0.0845,-0.0855,-0.0885,-0.0884,-0.087,-0.0871,-0.0856,-0.0798,-0.0775,-0.0703,-0.0671,-0.0576,-0.0516,-0.0422,-0.0283,-0.0297,-0.0128,-0.0129,-0.002,-0.0016,0.0049,0.0058,0.019,-0.0048,-0.0049,-0.0049,-0.0049,0,-0.0893,-0.0913,-0.0915,-0.0933,-0.0959,-0.0924,-0.0927,-0.0893,-0.0833,-0.0796,-0.0712,-0.0651,-0.0508,-0.039,-0.0287,-0.0115,-0.0128,-0.0017,0.0018,0.0031,0.0036,0.0155,0.0183,-0.0045,-0.0046,-0.0047,-0.0047,0,-0.0943,-0.0946,-0.0981,-0.0985,-0.0988,-0.1005,-0.0982,-0.0973,-0.0911,-0.0858,-0.0838,-0.0693,-0.0531,-0.038,-0.0197,-0.0105,0.0109,0.0096,0.0106,0.0139,0.0314,0.0336,0.05,0.0556,0.0226,0.0228,0.0229,0,-0.097,-0.0997,-0.1028,-0.1051,-0.1056,-0.1071,-0.1075,-0.1023,-0.0997,-0.0874,-0.0845,-0.068,-0.0537,-0.0245,-0.0055,0.0146,0.0206,0.0278,0.0252,0.034,0.0391,0.0399,0.0434,0.0318,0.0321,0.0322,0.0324,0,-0.1017,-0.1029,-0.1058,-0.1115,-0.1136,-0.1151,-0.1144,-0.1132,-0.1048,-0.0971,-0.0825,-0.0701,-0.0413,-0.0147,0.011,0.0225,0.035,0.032,0.0415,0.048,0.0496,0.0561,0.023,0.0339,0.0338,0.0337,0.0336,0.0335,-0.1041,-0.108,-0.1121,-0.1168,-0.1196,-0.1207,-0.1196,-0.1151,-0.1081,-0.0921,-0.0809,-0.0559,-0.0233,0.0148,0.0273,0.0538,0.0494,0.0608,0.063,0.0633,0.0682,0.0386,0.0529,0.0528,0.0528,0.0528,0.0527,0,-0.1065,-0.111,-0.1167,-0.1214,-0.1242,-0.1244,-0.1218,-0.1158,-0.1046,-0.0871,-0.0691,-0.0256,0.0071,0.0358,0.0709,0.0842,0.085,0.0903,0.0919,0.0941,0.0695,0.0692,0.0874,0.0873,0.0873,0.0873,0.0873,0.0873,-0.1078,-0.1139,-0.1175,-0.123,-0.1257,-0.1247,-0.1217,-0.1095,-0.0945,-0.0618,-0.033,-0.0114,0.0282,0.0787,0.1095,0.1118,0.1208,0.1201,0.1249,0.1072,0.1045,0.102,0.1026,0.1274,0.1275,0.1487,0.149,0.1491]}],[{"header":{"parameterUnit":"m.s-1","parameterCategory":2,"la1":30.2991,"la2":30.254,"lo1":-89.0895,"lo2":-89.0444,"dy":0.0017,"dx":0.0017,"nx":28,"ny":28,"refTime":"2024-10-20T21:00:00:Z","depth":"2","parameterNumber":2,"parameterNumberName":"U-component_of_CURRENTS"},"data":[0,0,0,0,0,0,0,0,0,0,0,0,0,0,0,0,0,0,0,0,0,0,0,0,0,0,0,0,0,0,0,0,0,0,0,0,0,0,0,0,0,0,0,0,0,0,0,0,0,0,0,0,0,0,0,0,0,0,-0.222,-0.222,0,-0.2212,-0.2212,-0.2212,-0.2178,-0.2177,-0.2177,-0.2176,-0.2142,-0.2142,-0.2141,0,0,0,0,0,0,0,0,0,0,0,0,0,-0.221,-0.221,-0.222,-0.222,-0.222,-0.2212,-0.2212,-0.2212,-0.2178,-0.2177,-0.2176,-0.2176,-0.2142,-0.2142,-0.2141,0,0,0,0,0,0,0,0,0,0,0,0,0,-0.2207,-0.221,-0.222,-0.2204,-0.2203,-0.2212,-0.2212,-0.2212,-0.2178,-0.2177,-0.2176,-0.2175,-0.2142,-0.2142,-0.2141,-0.2156,0,0,-0.214,-0.214,0,0,0,0,0,0,0,0,-0.2208,-0.2208,-0.2206,-0.2205,-0.2204,-0.2197,-0.2196,-0.2193,-0.2178,-0.2185,-0.2176,-0.2175,-0.216,-0.2158,-0.2156,-0.2155,-0.2153,-0.214,-0.2139,-0.2139,-0.2139,0,0,0,0,0,0,0,-0.2208,-0.2208,-0.2215,-0.2207,-0.2205,-0.2199,-0.2197,-0.2195,-0.2176,-0.2185,-0.2183,-0.2185,-0.2159,-0.2157,-0.2155,-0.2153,-0.214,-0.2139,-0.2139,-0.2139,-0.2157,-0.2158,0,0,0,0,0,0,-0.2214,-0.2208,-0.2215,-0.2215,-0.2206,-0.22,-0.2198,-0.2198,-0.2176,-0.2173,-0.2186,-0.2184,-0.2158,-0.2156,-0.2154,-0.2171,-0.2139,-0.2139,-0.2138,-0.2157,-0.2158,-0.2158,0,0,0,0,0,0,-0.2214,-0.2214,-0.2216,-0.2213,-0.2213,-0.2201,-0.2202,-0.2199,-0.2197,-0.2178,-0.2173,-0.2188,-0.2157,-0.2154,-0.2156,-0.2169,-0.2139,-0.2138,-0.2156,-0.2157,-0.2158,-0.2204,0,0,0,0,0,0,-0.2213,-0.2214,-0.2215,-0.2213,-0.2213,-0.2226,-0.2203,-0.2199,-0.2201,-0.2198,-0.2178,-0.2174,-0.2156,-0.2157,-0.2156,-0.2168,-0.2138,-0.2155,-0.2156,-0.2158,-0.2202,-0.2207,-0.2211,0,0,0,0,0,-0.2213,-0.2218,-0.2215,-0.2216,-0.2215,-0.2227,-0.2226,-0.2213,-0.2202,-0.2206,-0.2193,-0.2174,-0.2165,-0.2158,-0.2156,-0.2168,-0.2154,-0.2156,-0.2158,-0.2199,-0.2206,-0.2211,0,0,0,0,0,0,-0.2213,-0.2216,-0.2212,-0.2217,-0.2224,-0.2222,-0.2224,-0.2219,-0.2214,-0.2208,-0.2187,-0.2182,-0.2188,-0.2175,-0.2167,-0.2178,-0.2156,-0.2158,-0.2189,-0.2194,-0.2199,-0.2197,-0.2137,0,0,0,0,0,-0.2216,-0.2218,-0.2225,-0.2228,-0.2234,-0.2231,-0.2234,-0.2229,-0.2226,-0.2222,-0.221,-0.2199,-0.2195,-0.2192,-0.2185,-0.2195,-0.2171,-0.2201,-0.2206,-0.221,-0.2208,-0.219,-0.2193,-0.2164,-0.2164,-0.2164,0,0,-0.2215,-0.2218,-0.2218,-0.2229,-0.223,-0.2243,-0.223,-0.2238,-0.2247,-0.222,-0.2225,-0.2216,-0.2202,-0.2209,-0.221,-0.2199,-0.2206,-0.2212,-0.2216,-0.2211,-0.2192,-0.2195,-0.2197,-0.2166,-0.2165,-0.2165,0,0,-0.2218,-0.2222,-0.2225,-0.2237,-0.2249,-0.2253,-0.2259,-0.2264,-0.2263,-0.2274,-0.2255,-0.2255,-0.2251,-0.2242,-0.2237,-0.2266,-0.2232,-0.2267,-0.2289,-0.2272,-0.2274,-0.2275,-0.2248,-0.2247,-0.2269,-0.2269,-0.2269,0,-0.2217,-0.2223,-0.223,-0.2243,-0.2253,-0.226,-0.2273,-0.2281,-0.2285,-0.2287,-0.228,-0.2274,-0.2265,-0.2269,-0.228,-0.2276,-0.2257,-0.2268,-0.2278,-0.2278,-0.2279,-0.2251,-0.2248,-0.2271,-0.2271,-0.2271,-0.227,0,-0.2223,-0.2234,-0.2241,-0.2258,-0.2273,-0.2287,-0.2305,-0.2317,-0.232,-0.2322,-0.2328,-0.2318,-0.2311,-0.2315,-0.2307,-0.2312,-0.2294,-0.2286,-0.2262,-0.2284,-0.2253,-0.225,-0.2275,-0.2274,-0.2273,-0.2272,0,0,-0.2196,-0.2236,-0.2236,-0.2249,-0.2282,-0.2292,-0.2321,-0.234,-0.2348,-0.2357,-0.2361,-0.2366,-0.2357,-0.2351,-0.2343,-0.2334,-0.2327,-0.2317,-0.2315,-0.2287,-0.2281,-0.2201,-0.2189,-0.2321,-0.2321,-0.232,-0.2257,0,-0.2193,-0.2219,-0.2242,-0.2267,-0.2282,-0.231,-0.2335,-0.2356,-0.2368,-0.2378,-0.2375,-0.2376,-0.2373,-0.2369,-0.2364,-0.2338,-0.2321,-0.2344,-0.2265,-0.2263,-0.2186,-0.2184,-0.2029,-0.1954,-0.2254,-0.2254,-0.2253,0,-0.2179,-0.2201,-0.2225,-0.227,-0.2279,-0.2299,-0.2331,-0.2355,-0.2381,-0.239,-0.2396,-0.2393,-0.2392,-0.2381,-0.2345,-0.236,-0.2324,-0.23,-0.2297,-0.2201,-0.2176,-0.198,-0.1937,-0.2247,-0.2248,-0.2248,-0.2249,0,-0.2137,-0.2184,-0.2201,-0.2217,-0.2272,-0.2287,-0.2315,-0.235,-0.2364,-0.2392,-0.2396,-0.24,-0.2387,-0.2362,-0.2321,-0.2333,-0.2265,-0.2272,-0.2162,-0.2155,-0.1996,-0.1975,-0.2232,-0.2232,-0.2233,-0.2233,-0.2233,0,-0.2114,-0.2124,-0.2183,-0.2191,-0.2209,-0.2262,-0.228,-0.2311,-0.2349,-0.2352,-0.2392,-0.238,-0.2381,-0.2347,-0.2317,-0.222,-0.2257,-0.2155,-0.2131,-0.2007,-0.199,-0.2224,-0.2224,-0.223,-0.2231,-0.2231,-0.2232,0,-0.205,-0.2094,-0.2113,-0.2171,-0.2186,-0.2196,-0.2251,-0.2259,-0.2314,-0.2317,-0.2325,-0.2354,-0.2308,-0.2289,-0.2235,-0.219,-0.2124,-0.2077,-0.1929,-0.1887,-0.2029,-0.2032,-0.1952,-0.1949,-0.1946,-0.1944,-0.1942,0,-0.2015,-0.2019,-0.2074,-0.2078,-0.2099,-0.2129,-0.2142,-0.2219,-0.2231,-0.2282,-0.2269,-0.2255,-0.2195,-0.2099,-0.2033,-0.1945,-0.2022,-0.1754,-0.1749,-0.2014,-0.1999,-0.2007,-0.2014,-0.1557,-0.1552,-0.1548,-0.1545,0,-0.1933,-0.1955,-0.1967,-0.1983,-0.1998,-0.2015,-0.2046,-0.2053,-0.213,-0.2131,-0.2109,-0.2069,-0.2,-0.1835,-0.1748,-0.1687,-0.1763,-0.1666,-0.1963,-0.1658,-0.1637,-0.1624,-0.1645,-0.1508,-0.1512,-0.1514,-0.1516,-0.1518,-0.185,-0.184,-0.1858,-0.1858,-0.188,-0.1871,-0.1836,-0.1878,-0.1866,-0.1835,-0.1892,-0.1778,-0.1756,-0.153,-0.1441,-0.1387,-0.1515,-0.1444,-0.1458,-0.1476,-0.1448,-0.1424,-0.1249,-0.1251,-0.1252,-0.1254,-0.1255,0,-0.1729,-0.173,-0.1727,-0.1719,-0.1687,-0.1745,-0.174,-0.1677,-0.1608,-0.1612,-0.1558,-0.1357,-0.1237,-0.123,-0.1086,-0.1055,-0.1065,-0.1008,-0.1022,-0.1058,-0.109,-0.1044,-0.0736,-0.0735,-0.0733,-0.0732,0,0,-0.1664,-0.1615,-0.1615,-0.1518,-0.1513,-0.1417,-0.1382,-0.1316,-0.1286,-0.1169,-0.1109,-0.1168,-0.1184,-0.0961,-0.0908,-0.0797,-0.0922,-0.0755,-0.117,-0.1221,-0.1252,-0.1336,-0.1304,0,0,0,0,0]},{"header":{"parameterUnit":"m.s-1","parameterCategory":2,"la1":30.2991,"la2":30.254,"lo1":-89.0895,"lo2":-89.0444,"dy":0.0017,"dx":0.0017,"nx":28,"ny":28,"refTime":"2024-10-20T21:00:00:Z","depth":"2","parameterNumber":3,"parameterNumberName":"V-component_of_CURRENTS"},"data":[0,0,0,0,0,0,0,0,0,0,0,0,0,0,0,0,0,0,0,0,0,0,0,0,0,0,0,0,0,0,0,0,0,0,0,0,0,0,0,0,0,0,0,0,0,0,0,0,0,0,0,0,0,0,0,0,0,0,-0.0362,-0.0361,0,-0.0289,-0.0288,-0.0287,-0.0245,-0.0245,-0.0245,-0.0245,-0.0154,-0.0152,-0.015,0,0,0,0,0,0,0,0,0,0,0,0,0,-0.0441,-0.044,-0.0362,-0.0361,-0.036,-0.0289,-0.0288,-0.0287,-0.0245,-0.0245,-0.0245,-0.0245,-0.0155,-0.0152,-0.015,0,0,0,0,0,0,0,0,0,0,0,0,0,-0.0391,-0.0439,-0.0362,-0.0331,-0.0327,-0.0289,-0.0288,-0.0287,-0.0245,-0.0245,-0.0245,-0.0245,-0.0156,-0.0153,-0.0149,-0.0133,0,0,-0.0139,-0.0137,0,0,0,0,0,0,0,0,-0.0394,-0.0388,-0.0336,-0.0333,-0.0329,-0.0276,-0.0282,-0.0234,-0.0245,-0.0276,-0.0245,-0.0245,-0.0194,-0.0187,-0.0174,-0.0128,-0.0125,-0.0139,-0.0137,-0.0135,-0.0134,0,0,0,0,0,0,0,-0.0398,-0.0391,-0.0333,-0.0335,-0.0331,-0.0312,-0.0305,-0.0273,-0.0237,-0.0274,-0.027,-0.0262,-0.0191,-0.0177,-0.0172,-0.0123,-0.0139,-0.0136,-0.0134,-0.0132,-0.0053,-0.0053,0,0,0,0,0,0,-0.0408,-0.0394,-0.0335,-0.0331,-0.0362,-0.0311,-0.0303,-0.0293,-0.0237,-0.0229,-0.0263,-0.0261,-0.0183,-0.0176,-0.0168,-0.0145,-0.0135,-0.0132,-0.013,-0.0053,-0.0053,-0.0053,0,0,0,0,0,0,-0.041,-0.0403,-0.0338,-0.0361,-0.0351,-0.031,-0.0299,-0.0292,-0.0279,-0.0229,-0.022,-0.0258,-0.0183,-0.0173,-0.0141,-0.0141,-0.013,-0.0127,-0.0053,-0.0053,-0.0053,-0.0098,0,0,0,0,0,0,-0.0413,-0.0405,-0.0404,-0.0362,-0.0351,-0.0321,-0.0299,-0.029,-0.0274,-0.0271,-0.0222,-0.0213,-0.0182,-0.0147,-0.0138,-0.0136,-0.0125,-0.0053,-0.0053,-0.0053,-0.0096,-0.0099,-0.0102,0,0,0,0,0,-0.0416,-0.0415,-0.0404,-0.0397,-0.035,-0.0321,-0.0314,-0.0283,-0.0274,-0.0271,-0.0237,-0.0215,-0.014,-0.0144,-0.0134,-0.0131,-0.0053,-0.0053,-0.0053,-0.0095,-0.0099,-0.0102,0,0,0,0,0,0,-0.0446,-0.0409,-0.0397,-0.0384,-0.0358,-0.0314,-0.0308,-0.0288,-0.0258,-0.0257,-0.0212,-0.0201,-0.0174,-0.0146,-0.0152,-0.0107,-0.0093,-0.0091,-0.0129,-0.0132,-0.0134,-0.0145,-0.0122,0,0,0,0,0,-0.0454,-0.0446,-0.0407,-0.0398,-0.0387,-0.035,-0.0336,-0.0316,-0.0283,-0.027,-0.0235,-0.0198,-0.0165,-0.0145,-0.0114,-0.0088,-0.0057,-0.0079,-0.0082,-0.0084,-0.0086,-0.004,-0.0039,-0.0053,-0.0053,-0.0053,0,0,-0.0464,-0.0443,-0.0438,-0.0405,-0.0383,-0.0371,-0.0341,-0.0323,-0.0312,-0.0264,-0.0242,-0.0208,-0.0161,-0.0133,-0.0119,-0.011,-0.0064,-0.0084,-0.0087,-0.0086,-0.004,-0.0039,-0.0037,-0.0052,-0.0052,-0.0053,0,0,-0.0484,-0.0462,-0.0464,-0.0445,-0.0416,-0.0391,-0.0389,-0.0349,-0.033,-0.0304,-0.0268,-0.0233,-0.0185,-0.0148,-0.0124,-0.0122,-0.0083,-0.0114,-0.013,-0.0086,-0.0085,-0.0083,-0.0045,-0.0039,-0.0111,-0.0112,-0.0112,0,-0.0499,-0.0493,-0.046,-0.0457,-0.0446,-0.0404,-0.0405,-0.0378,-0.0333,-0.0316,-0.0305,-0.0227,-0.0191,-0.0147,-0.0146,-0.0127,-0.0099,-0.0124,-0.009,-0.0088,-0.0085,-0.0046,-0.004,-0.0114,-0.0113,-0.0113,-0.0113,0,-0.0518,-0.0515,-0.0515,-0.0498,-0.0481,-0.0475,-0.0435,-0.0418,-0.0392,-0.0358,-0.0315,-0.0261,-0.0214,-0.0196,-0.017,-0.0133,-0.0117,-0.0103,-0.0085,-0.0087,-0.0045,-0.0038,-0.0117,-0.0116,-0.0115,-0.0115,0,0,-0.0548,-0.0533,-0.0534,-0.0538,-0.0504,-0.0494,-0.0476,-0.0442,-0.0428,-0.038,-0.0353,-0.0292,-0.0259,-0.023,-0.0188,-0.0147,-0.0105,-0.0122,-0.0119,-0.0089,-0.0011,0.002,0.0032,-0.0086,-0.0085,-0.0084,0.001,0,-0.0575,-0.0591,-0.0567,-0.0579,-0.0584,-0.0542,-0.0528,-0.0491,-0.045,-0.0412,-0.0346,-0.0307,-0.0272,-0.0252,-0.0204,-0.0127,-0.0087,-0.0132,-0.0009,-0.0005,0.0019,0.0041,0.0029,0.0113,0.0018,0.0019,0.002,0,-0.0602,-0.0611,-0.0632,-0.0626,-0.0622,-0.0619,-0.0589,-0.0568,-0.05,-0.0466,-0.0409,-0.0355,-0.0283,-0.026,-0.013,-0.0161,-0.0095,-0.0037,-0.0031,0.0019,0.0041,0.0102,0.0131,0.0033,0.0032,0.0031,0.003,0,-0.0649,-0.0653,-0.0677,-0.0675,-0.0658,-0.0658,-0.0644,-0.059,-0.0568,-0.0501,-0.0474,-0.0381,-0.033,-0.0235,-0.0111,-0.0122,0.0034,0.0036,0.0126,0.0129,0.0154,0.0158,0.0119,0.0118,0.0118,0.0118,0.0118,0,-0.0689,-0.0705,-0.0705,-0.072,-0.0743,-0.0709,-0.0711,-0.0679,-0.0624,-0.0594,-0.051,-0.0457,-0.0321,-0.0213,-0.0114,0.004,0.0035,0.0131,0.016,0.0138,0.0139,0.0096,0.0093,0.0121,0.0121,0.012,0.0119,0,-0.0735,-0.0734,-0.0763,-0.0766,-0.0769,-0.0786,-0.0767,-0.076,-0.0702,-0.0659,-0.0641,-0.0505,-0.0358,-0.0216,-0.0044,0.0042,0.0178,0.0228,0.0193,0.0216,0.0241,0.0233,0.0336,0.0338,0.034,0.0341,0.0342,0,-0.0758,-0.0781,-0.0809,-0.0832,-0.0837,-0.0853,-0.0859,-0.0811,-0.0788,-0.068,-0.0656,-0.0509,-0.038,-0.0111,0.0063,0.025,0.0238,0.0336,0.0314,0.0248,0.0266,0.0256,0.0246,0.033,0.0331,0.0331,0.0332,0,-0.0801,-0.0813,-0.0839,-0.0894,-0.0917,-0.0933,-0.093,-0.0922,-0.0848,-0.0779,-0.0651,-0.054,-0.0283,-0.0056,0.0177,0.028,0.0305,0.0359,0.0317,0.0272,0.0249,0.0263,0.0253,0.0339,0.0339,0.0338,0.0338,0.0337,-0.0827,-0.0862,-0.0901,-0.0947,-0.0977,-0.0993,-0.0987,-0.0948,-0.0888,-0.0749,-0.0649,-0.043,-0.0253,0.0118,0.0258,0.0394,0.0389,0.0422,0.0417,0.0412,0.039,0.037,0.048,0.048,0.048,0.048,0.048,0,-0.0854,-0.0894,-0.0948,-0.0994,-0.1024,-0.1029,-0.1012,-0.0959,-0.0864,-0.0714,-0.0554,-0.0295,-0.0054,0.0134,0.0357,0.0471,0.0445,0.0484,0.0425,0.0418,0.0412,0.0387,0.0478,0.0478,0.0479,0.0479,0,0,-0.0869,-0.0926,-0.0956,-0.1012,-0.1042,-0.1043,-0.1021,-0.0914,-0.0782,-0.0593,-0.0411,-0.0221,-0.0002,0.015,0.0281,0.0392,0.0372,0.0399,0.0392,0.0299,0.0292,0.0373,0.0328,0,0,0,0,0]}],[{"header":{"parameterUnit":"m.s-1","parameterCategory":2,"la1":30.2991,"la2":30.254,"lo1":-89.0895,"lo2":-89.0444,"dy":0.0017,"dx":0.0017,"nx":28,"ny":28,"refTime":"2024-10-20T21:00:00:Z","depth":"4","parameterNumber":2,"parameterNumberName":"U-component_of_CURRENTS"},"data":[0,0,0,0,0,0,0,0,0,0,0,0,0,0,0,0,0,0,0,0,0,0,0,0,0,0,0,0,0,0,0,0,0,0,0,0,0,0,0,0,0,0,0,0,0,0,0,0,0,0,0,0,0,0,0,0,0,0,-0.1553,-0.1553,0,-0.1591,-0.1591,-0.1592,-0.1619,-0.162,-0.162,-0.162,-0.1663,-0.1664,-0.1665,0,0,0,0,0,0,0,0,0,0,0,0,0,-0.1505,-0.1505,-0.1553,-0.1553,-0.1554,-0.1591,-0.1591,-0.1592,-0.1619,-0.162,-0.162,-0.162,-0.1663,-0.1664,-0.1665,0,0,0,0,0,0,0,0,0,0,0,0,0,-0.1531,-0.1505,-0.1552,-0.1573,-0.1575,-0.1591,-0.1591,-0.1592,-0.1619,-0.162,-0.162,-0.1621,-0.1663,-0.1664,-0.1665,-0.1662,0,0,-0.1669,-0.1669,0,0,0,0,0,0,0,0,-0.153,-0.1533,-0.1569,-0.1571,-0.1574,-0.1602,-0.159,-0.1616,-0.1619,-0.1601,-0.162,-0.1621,-0.1644,-0.1646,-0.1651,-0.1664,-0.1666,-0.1669,-0.167,-0.167,-0.1671,0,0,0,0,0,0,0,-0.1528,-0.1531,-0.1566,-0.157,-0.1573,-0.1581,-0.1585,-0.1595,-0.1618,-0.1603,-0.1605,-0.1611,-0.1645,-0.1649,-0.1652,-0.1667,-0.1669,-0.167,-0.1671,-0.1671,-0.1741,-0.1742,0,0,0,0,0,0,-0.1525,-0.153,-0.1565,-0.1568,-0.1554,-0.1581,-0.1586,-0.1591,-0.1618,-0.1623,-0.1611,-0.1612,-0.1647,-0.165,-0.1654,-0.1712,-0.167,-0.1671,-0.1672,-0.174,-0.1741,-0.1743,0,0,0,0,0,0,-0.1524,-0.1528,-0.1564,-0.1551,-0.1556,-0.1582,-0.1588,-0.1592,-0.1623,-0.1624,-0.1629,-0.164,-0.1648,-0.1652,-0.1687,-0.1712,-0.1672,-0.1673,-0.1739,-0.1741,-0.1742,-0.1791,0,0,0,0,0,0,-0.1522,-0.1527,-0.1543,-0.155,-0.1557,-0.159,-0.1587,-0.1592,-0.1624,-0.1628,-0.165,-0.1653,-0.1648,-0.1685,-0.1688,-0.1713,-0.1674,-0.1737,-0.174,-0.1742,-0.1788,-0.1794,-0.1799,0,0,0,0,0,-0.152,-0.1535,-0.1543,-0.1549,-0.1573,-0.1591,-0.1596,-0.1614,-0.1626,-0.1643,-0.1661,-0.1654,-0.17,-0.1687,-0.1691,-0.1716,-0.1736,-0.1739,-0.1741,-0.1785,-0.1793,-0.1799,0,0,0,0,0,0,-0.1525,-0.154,-0.1549,-0.1569,-0.1588,-0.1597,-0.1619,-0.163,-0.1658,-0.167,-0.167,-0.1675,-0.1712,-0.1709,-0.1695,-0.1742,-0.1717,-0.172,-0.1749,-0.1756,-0.1762,-0.1752,-0.1675,0,0,0,0,0,-0.1532,-0.1548,-0.1563,-0.1583,-0.1594,-0.1612,-0.1628,-0.1641,-0.166,-0.1674,-0.1691,-0.1707,-0.172,-0.1736,-0.1745,-0.1775,-0.1751,-0.1793,-0.1799,-0.1803,-0.1798,-0.1786,-0.179,-0.1751,-0.1751,-0.1751,0,0,-0.1541,-0.1551,-0.1562,-0.1585,-0.1603,-0.1624,-0.1624,-0.1655,-0.1678,-0.1674,-0.1721,-0.173,-0.1733,-0.1764,-0.178,-0.1768,-0.1803,-0.1807,-0.1811,-0.1802,-0.1789,-0.1792,-0.1796,-0.1753,-0.1752,-0.1752,0,0,-0.1553,-0.1576,-0.159,-0.161,-0.164,-0.1651,-0.1667,-0.1694,-0.1715,-0.1754,-0.1755,-0.1779,-0.181,-0.1811,-0.1814,-0.1858,-0.1832,-0.187,-0.1895,-0.1884,-0.1887,-0.1889,-0.1863,-0.1863,-0.1875,-0.1875,-0.1875,0,-0.1566,-0.1582,-0.1599,-0.1619,-0.164,-0.1667,-0.169,-0.1714,-0.1751,-0.1767,-0.1779,-0.1818,-0.1827,-0.1846,-0.1865,-0.187,-0.1856,-0.1869,-0.189,-0.1892,-0.1893,-0.1866,-0.1865,-0.1878,-0.1878,-0.1877,-0.1877,0,-0.1577,-0.1606,-0.162,-0.1652,-0.1677,-0.1705,-0.1735,-0.177,-0.1802,-0.1818,-0.1858,-0.1869,-0.1887,-0.19,-0.19,-0.1918,-0.1903,-0.1896,-0.187,-0.1899,-0.187,-0.1868,-0.1882,-0.1881,-0.188,-0.1879,0,0,-0.156,-0.1617,-0.1624,-0.1648,-0.1698,-0.1716,-0.1764,-0.18,-0.1827,-0.1869,-0.1896,-0.1927,-0.1934,-0.1938,-0.1942,-0.194,-0.1943,-0.1931,-0.1929,-0.19,-0.1912,-0.1789,-0.1774,-0.1945,-0.1945,-0.1945,-0.1888,0,-0.1566,-0.1606,-0.1635,-0.1683,-0.1706,-0.175,-0.1788,-0.1828,-0.1864,-0.1899,-0.1916,-0.1944,-0.1948,-0.1964,-0.1965,-0.195,-0.194,-0.1958,-0.1892,-0.189,-0.1772,-0.1768,-0.1945,-0.1886,-0.1885,-0.1885,-0.1885,0,-0.1557,-0.1588,-0.1634,-0.1696,-0.1711,-0.1749,-0.1808,-0.1845,-0.1895,-0.1922,-0.1951,-0.1965,-0.1981,-0.1978,-0.1957,-0.1973,-0.1946,-0.1928,-0.1925,-0.1787,-0.1761,-0.185,-0.188,-0.188,-0.1881,-0.1881,-0.1881,0,-0.1515,-0.1583,-0.1621,-0.1644,-0.1719,-0.1754,-0.1797,-0.1854,-0.1882,-0.1937,-0.1955,-0.1978,-0.1986,-0.1969,-0.1942,-0.1955,-0.1901,-0.1908,-0.1766,-0.1757,-0.1865,-0.1863,-0.1877,-0.1877,-0.1878,-0.1878,-0.1878,0,-0.1487,-0.1521,-0.1612,-0.1631,-0.1677,-0.1741,-0.1789,-0.1834,-0.1891,-0.1904,-0.1964,-0.1959,-0.1986,-0.1963,-0.1938,-0.1832,-0.1894,-0.1754,-0.1728,-0.1888,-0.1889,-0.1863,-0.1862,-0.1876,-0.1876,-0.1876,-0.1877,0,-0.1423,-0.1487,-0.1535,-0.1627,-0.1657,-0.1691,-0.1777,-0.1798,-0.1871,-0.1888,-0.1905,-0.1946,-0.1906,-0.1905,-0.1864,-0.1801,-0.1731,-0.1679,-0.1837,-0.1825,-0.1596,-0.1599,-0.1507,-0.1502,-0.1497,-0.1494,-0.1491,0,-0.1388,-0.141,-0.1515,-0.154,-0.1585,-0.1649,-0.1679,-0.1772,-0.1787,-0.1851,-0.1836,-0.184,-0.1844,-0.1674,-0.1704,-0.1626,-0.1609,-0.1565,-0.1588,-0.1571,-0.1556,-0.1566,-0.1574,-0.1484,-0.1483,-0.1482,-0.1481,0,-0.1313,-0.1368,-0.1403,-0.1457,-0.1503,-0.1541,-0.1595,-0.1594,-0.1677,-0.1766,-0.17,-0.1662,-0.161,-0.1569,-0.1516,-0.1471,-0.1593,-0.1521,-0.153,-0.1552,-0.1543,-0.1535,-0.1548,-0.1466,-0.1469,-0.147,-0.1471,0,-0.1251,-0.1259,-0.1314,-0.1344,-0.1402,-0.14,-0.1448,-0.1449,-0.1476,-0.1556,-0.1527,-0.1532,-0.158,-0.1486,-0.1442,-0.1382,-0.1363,-0.1319,-0.1338,-0.1355,-0.1333,-0.1302,-0.1111,0,0,0,0,0,-0.1178,-0.1168,-0.119,-0.1213,-0.1267,-0.1293,-0.1369,-0.1419,-0.1508,-0.1412,-0.1463,-0.1405,-0.1329,-0.1344,-0.1246,-0.138,-0.1376,-0.1262,-0.134,-0.1386,-0.1403,-0.1392,0,0,0,0,0,0,-0.1127,-0.1143,-0.1144,-0.1093,-0.1083,-0.1117,-0.1158,-0.122,-0.118,-0.1275,-0.1236,-0.1311,-0.1259,-0.1347,-0.121,-0.1214,-0.1231,-0.1284,-0.128,-0.1376,-0.1391,-0.1405,-0.14,0,0,0,0,0]},{"header":{"parameterUnit":"m.s-1","parameterCategory":2,"la1":30.2991,"la2":30.254,"lo1":-89.0895,"lo2":-89.0444,"dy":0.0017,"dx":0.0017,"nx":28,"ny":28,"refTime":"2024-10-20T21:00:00:Z","depth":"4","parameterNumber":3,"parameterNumberName":"V-component_of_CURRENTS"},"data":[0,0,0,0,0,0,0,0,0,0,0,0,0,0,0,0,0,0,0,0,0,0,0,0,0,0,0,0,0,0,0,0,0,0,0,0,0,0,0,0,0,0,0,0,0,0,0,0,0,0,0,0,0,0,0,0,0,0,-0.0234,-0.0233,0,-0.019,-0.0189,-0.0189,-0.0163,-0.0163,-0.0163,-0.0163,-0.01,-0.0098,-0.0097,0,0,0,0,0,0,0,0,0,0,0,0,0,-0.0274,-0.0274,-0.0234,-0.0233,-0.0233,-0.019,-0.0189,-0.0189,-0.0163,-0.0163,-0.0163,-0.0163,-0.01,-0.0099,-0.0097,0,0,0,0,0,0,0,0,0,0,0,0,0,-0.0246,-0.0274,-0.0234,-0.0215,-0.0213,-0.019,-0.0189,-0.0188,-0.0163,-0.0163,-0.0163,-0.0163,-0.0101,-0.0099,-0.0096,-0.0084,0,0,-0.0089,-0.0088,0,0,0,0,0,0,0,0,-0.0248,-0.0245,-0.0218,-0.0216,-0.0214,-0.0182,-0.018,-0.0153,-0.0163,-0.0182,-0.0163,-0.0163,-0.0126,-0.0121,-0.0113,-0.0081,-0.0079,-0.0089,-0.0087,-0.0086,-0.0086,0,0,0,0,0,0,0,-0.025,-0.0246,-0.0216,-0.0218,-0.0215,-0.0201,-0.0197,-0.0175,-0.0155,-0.018,-0.0178,-0.0174,-0.0124,-0.0116,-0.0112,-0.0078,-0.0089,-0.0087,-0.0085,-0.0084,-0.003,-0.003,0,0,0,0,0,0,-0.0257,-0.0248,-0.0218,-0.0215,-0.0231,-0.0201,-0.0196,-0.0192,-0.0155,-0.015,-0.0174,-0.0173,-0.012,-0.0115,-0.0109,-0.0092,-0.0086,-0.0084,-0.0083,-0.003,-0.003,-0.003,0,0,0,0,0,0,-0.0258,-0.0254,-0.0219,-0.0231,-0.0225,-0.02,-0.0196,-0.0191,-0.0186,-0.0151,-0.0145,-0.0174,-0.012,-0.0113,-0.0092,-0.0089,-0.0083,-0.0081,-0.003,-0.003,-0.003,-0.0057,0,0,0,0,0,0,-0.0259,-0.0255,-0.0259,-0.0231,-0.0225,-0.0211,-0.0196,-0.0191,-0.0183,-0.0181,-0.0148,-0.0142,-0.0119,-0.0096,-0.009,-0.0086,-0.0079,-0.003,-0.003,-0.003,-0.0056,-0.0057,-0.0059,0,0,0,0,0,-0.0261,-0.0264,-0.0259,-0.0255,-0.0229,-0.0211,-0.0207,-0.0188,-0.0184,-0.0183,-0.016,-0.0143,-0.0091,-0.0094,-0.0087,-0.0082,-0.003,-0.003,-0.003,-0.0055,-0.0057,-0.0059,0,0,0,0,0,0,-0.0282,-0.0261,-0.0255,-0.0251,-0.0236,-0.0207,-0.0206,-0.0193,-0.0175,-0.0175,-0.0143,-0.0135,-0.0116,-0.0097,-0.01,-0.0066,-0.0058,-0.0056,-0.0079,-0.0081,-0.0083,-0.0087,-0.0077,0,0,0,0,0,-0.029,-0.0288,-0.0264,-0.0263,-0.0257,-0.0234,-0.0226,-0.0214,-0.0192,-0.0184,-0.016,-0.0134,-0.011,-0.0095,-0.0073,-0.0053,-0.0028,-0.0046,-0.0047,-0.0049,-0.0048,-0.0006,-0.0004,-0.003,-0.003,-0.003,0,0,-0.0299,-0.0287,-0.0287,-0.0268,-0.0256,-0.0248,-0.0229,-0.022,-0.0213,-0.018,-0.0165,-0.0142,-0.0107,-0.0086,-0.0076,-0.0069,-0.003,-0.0049,-0.005,-0.0049,-0.0006,-0.0003,-0.0001,-0.003,-0.003,-0.003,0,0,-0.0314,-0.0306,-0.0309,-0.0298,-0.0282,-0.0266,-0.0266,-0.024,-0.0228,-0.0212,-0.0185,-0.0158,-0.0126,-0.0094,-0.0075,-0.0073,-0.0043,-0.0069,-0.0076,-0.0035,-0.0032,-0.003,-0.0,0.0005,-0.0066,-0.0066,-0.0066,0,-0.0327,-0.0326,-0.0308,-0.0307,-0.0301,-0.0276,-0.0277,-0.0259,-0.023,-0.0217,-0.0213,-0.0155,-0.0128,-0.0088,-0.0087,-0.0075,-0.0053,-0.0071,-0.0037,-0.0034,-0.003,-0.0001,0.0006,-0.0067,-0.0067,-0.0067,-0.0067,0,-0.034,-0.0343,-0.0344,-0.0335,-0.0325,-0.0324,-0.0296,-0.0286,-0.0271,-0.0246,-0.0213,-0.0173,-0.0136,-0.0123,-0.0103,-0.0066,-0.0059,-0.0047,-0.0033,-0.0029,0.0001,0.0009,-0.0069,-0.0069,-0.0068,-0.0068,0,0,-0.0361,-0.0355,-0.0358,-0.0362,-0.0342,-0.0337,-0.0323,-0.0299,-0.0289,-0.0256,-0.0234,-0.0185,-0.0161,-0.0138,-0.0105,-0.0067,-0.0027,-0.0051,-0.0048,-0.0024,0.0055,0.0048,0.0055,-0.001,-0.0009,-0.0008,0.0066,0,-0.0378,-0.0392,-0.0378,-0.0389,-0.0393,-0.0368,-0.0358,-0.0332,-0.0304,-0.0277,-0.0223,-0.0195,-0.0166,-0.0152,-0.0107,-0.0047,-0.0008,-0.0048,0.005,0.0053,0.0045,0.0063,-0.0004,0.0071,0.0073,0.0074,0.0075,0,-0.0394,-0.0403,-0.0422,-0.0422,-0.0421,-0.0423,-0.0405,-0.0391,-0.034,-0.0316,-0.0269,-0.0228,-0.0164,-0.0148,-0.0036,-0.0064,-0.0009,0.0038,0.0042,0.005,0.0059,0.007,0.0088,0.0087,0.0086,0.0085,0.0085,0,-0.0423,-0.0431,-0.0452,-0.0453,-0.0447,-0.0452,-0.0446,-0.0408,-0.0396,-0.0343,-0.0326,-0.0243,-0.0205,-0.012,-0.0023,-0.0029,0.0098,0.0102,0.015,0.015,0.0145,0.0142,0.018,0.0179,0.0179,0.0179,0.0179,0,-0.0443,-0.046,-0.0474,-0.0487,-0.0513,-0.0492,-0.0502,-0.048,-0.0443,-0.0424,-0.0353,-0.0314,-0.0197,-0.011,-0.0024,0.0086,0.01,0.0154,0.0172,0.0131,0.0125,0.015,0.0146,0.0182,0.0181,0.0181,0.018,0,-0.0467,-0.0475,-0.0505,-0.052,-0.053,-0.055,-0.0553,-0.0551,-0.0512,-0.0484,-0.0471,-0.0362,-0.0246,-0.0127,0.0018,0.0079,0.0186,0.022,0.0164,0.0177,0.021,0.0203,0.0279,0.028,0.028,0.028,0.0281,0,-0.0477,-0.0497,-0.0542,-0.0569,-0.0583,-0.0608,-0.0623,-0.0595,-0.0581,-0.0508,-0.0489,-0.0379,-0.0297,-0.0086,0.0029,0.0193,0.0212,0.0257,0.0238,0.0211,0.0222,0.0215,0.0208,0.0281,0.0281,0.0281,0.0281,0,-0.0497,-0.0521,-0.0548,-0.0611,-0.0645,-0.067,-0.0681,-0.0675,-0.0628,-0.0599,-0.0485,-0.0371,-0.0237,-0.0078,0.0047,0.0162,0.0223,0.0261,0.0261,0.0244,0.0215,0.0223,0.0216,0.0283,0.0283,0.0282,0.0282,0,-0.0514,-0.0544,-0.059,-0.0638,-0.0687,-0.0709,-0.0713,-0.0675,-0.065,-0.0557,-0.052,-0.0366,-0.0272,-0.0093,0.0024,0.0135,0.0157,0.0181,0.0185,0.0185,0.0132,0.008,0.0129,0,0,0,0,0,-0.0522,-0.0558,-0.061,-0.0659,-0.0707,-0.0728,-0.0737,-0.0724,-0.0682,-0.0604,-0.0554,-0.0422,-0.0224,-0.0129,-0.0017,0.0008,0.0154,0.0138,0.0177,0.029,0.0289,0.0241,0,0,0,0,0,0,-0.053,-0.0582,-0.0609,-0.0662,-0.0697,-0.0736,-0.0741,-0.0715,-0.0651,-0.0595,-0.0478,-0.0408,-0.0209,-0.0283,-0.0017,0.0016,0.0052,0.0237,0.0239,0.0291,0.029,0.0288,0.0239,0,0,0,0,0]}]]